TIME,DELAY(SENSOR),PRES,OXYGEN,RAWTEMP,T(OPTODE),TCPHASE,FLUOR,BETA(BETA700),BETA(BETA412),BETA(BETA440),CDOM,C(CSC),ED(ED412.40),ED(ED444.00),ED(ED489.70),ED(ED554.30),LU(LU411.80),LU(LU443.40),LU(LU489.60),LU(LU554.10),COMP,TILTX,TILTY,CHECK
1382673589,5805,878.3499755859375000,50.4291381835937500,658.8961181640625000,4.6643071174621580,53.4694099426269500,53,100,85,78,78,15259,2147751323,2147423232,2148012800,2147872411,2147636644,2147057453,2148263890,2147196937,1771,3,13,10991
1382677185,5812,938.6099853515625000,56.2629318237304700,666.6699829101562000,4.4081377983093260,52.7820281982421900,52,97,88,78,78,15259,2147755218,2147423040,2148013842,2147877366,2147638628,2147053275,2148262070,2147196928,739,4,13,25596
1382680785,5807,966.3300170898438000,57.8862190246582000,669.6754150390625000,4.3089199066162110,52.6131896972656250,52,98,85,78,77,15261,2147757750,2147421522,2148014189,2147875273,2147637504,2147053357,2148265782,2147195072,159,4,13,51057
1382684385,5808,993.5000000000000000,58.3465690612793000,673.4395751953125000,4.1845068931579590,52.6025009155273440,51,97,84,78,77,15257,2147761819,2147420681,2148010614,2147875446,2147639488,2147051894,2148262793,2147196077,276,3,13,46439
1382687985,5810,997.0399780273438000,58.7064285278320300,673.7463989257812000,4.1743597984313965,52.5597381591796900,53,97,87,78,79,15260,2147754688,2147424128,2148012306,2147876324,2147639341,2147054144,2148266651,2147193472,17,4,13,50848
1382691585,5808,1005.0499877929688000,58.3679618835449200,673.4586791992188000,4.1838741302490230,52.5984916687011700,52,95,90,79,78,15260,2147756918,2147423259,2148012809,2147876589,2147635602,2147052598,2148262610,2147196800,210,4,13,12793
1382695185,5811,999.4000244140625000,58.3054695129394500,673.9650878906250000,4.1671280860900880,52.6109809875488300,52,96,80,78,78,15220,2147752621,2147421001,2148009993,2147875291,2147640804,2147051245,2148262866,2147198710,57,4,13,526
1382698785,5807,1006.2299804687500000,58.6710205078125000,674.2418212890625000,4.1579737663269040,52.5681610107421900,53,97,84,78,79,15221,2147756297,2147422354,2148011282,2147875410,2147640466,2147052480,2148262198,2147200914,279,4,13,60124
1382702385,5808,1003.4500122070312000,58.3002510070800800,674.2282104492188000,4.1584219932556150,52.6190185546875000,52,96,84,78,78,15223,2147752539,2147422829,2148013284,2147875090,2147639515,2147048502,2148268251,2147197778,131,4,13,59935
1382705985,5809,997.4699707031250000,58.8394508361816400,675.7620849609375000,4.1076622009277340,52.5733413696289060,52,95,84,78,79,15194,2147753682,2147421723,2148011913,2147877385,2147640027,2147057124,2148262500,2147198848,292,4,13,43469
1382709585,5807,1000.8900146484375000,59.0038604736328100,676.4890136718750000,4.0836009979248050,52.5603790283203100,52,95,85,77,78,15194,2147755565,2147420470,2148010157,2147874697,2147639625,2147053284,2148265234,2147193344,132,4,13,9391
1382713185,5807,1010.3900146484375000,58.6726188659668000,675.8458251953125000,4.1048951148986820,52.5953216552734400,53,96,82,78,77,15193,2147759003,2147422994,2148015286,2147875693,2147641554,2147051392,2148266953,2147196086,3504,4,13,32010
1382716785,5809,1009.6099853515625000,58.8372497558593750,675.3281860351562000,4.1220259666442870,52.5662384033203100,51,96,87,88,78,15191,2147756461,2147425014,2148014683,2147876032,2147639579,2147053010,2148262656,2147198454,117,4,13,61370
1382720385,5808,1013.9400024414062000,58.3722496032714840,674.2874755859375000,4.1564621925354000,52.6127395629882800,51,101,84,78,77,15194,2147754816,2147422208,2148015844,2147872146,2147640969,2147052900,2148265892,2147196333,337,4,13,4964
1382723985,5808,1007.7899780273438000,58.0346984863281250,673.6027221679688000,4.1791110038757320,52.6406593322753900,52,97,83,78,79,15192,2147757659,2147422537,2148012480,2147873106,2147641545,2147053184,2148267081,2147196809,392,4,13,31045
1382727585,5808,1008.8900146484375000,58.2900581359863300,674.7360839843750000,4.1416168212890625,52.6279792785644500,52,97,81,79,79,15192,2147757586,2147422784,2148013065,2147870729,2147639094,2147049563,2148263332,2147193325,52,4,13,39688
1382731185,5810,1005.1900024414062000,58.9467506408691400,676.4282836914062000,4.0856108665466310,52.5652999877929700,52,97,83,77,78,15192,2147753334,2147426834,2148013430,2147876800,2147639744,2147053641,2148260333,2147195611,2581,3,13,12448
1382734785,5811,1008.2899780273438000,58.5724296569824200,675.6826782226562000,4.1102938652038570,52.6019783020019500,52,96,85,77,79,15192,2147755254,2147423442,2148010468,2147874724,2147640841,2147053659,2148266569,2147195474,3404,4,13,3606
1382738385,5808,1009.8599853515625000,58.6307296752929700,675.2626953125000000,4.1241931915283200,52.5919990539550800,52,99,83,78,78,15189,2147756342,2147425152,2148014217,2147879314,2147639204,2147053522,2148264704,2147194377,227,4,13,55679
1382741985,5807,1012.0499877929688000,58.5296707153320300,675.0554199218750000,4.1310520172119140,52.6020889282226560,52,96,83,77,78,15191,2147756571,2147422994,2148013613,2147875108,2147640758,2147050944,2148268096,2147194166,168,4,13,49758
1382745585,5807,1012.4699707031250000,58.1090202331543000,674.8914794921875000,4.1364750862121580,52.6515884399414060,52,96,83,78,79,14889,2147758317,2147422464,2148013293,2147872374,2147638390,2147051547,2148268964,2147198765,3370,4,13,48314
1382749185,5810,1012.5399780273438000,57.7915992736816400,675.3359985351562000,4.1217670440673830,52.6989707946777340,51,96,84,78,78,14892,2147758180,2147423122,2148014272,2147874724,2147640036,2147051803,2148265792,2147199021,3512,3,13,20225
1382752785,5807,1019.8900146484375000,59.0653495788574200,675.8836059570312000,4.1036429405212400,52.5436897277832000,53,100,84,78,79,14922,2147755218,2147426468,2148013193,2147876004,2147638500,2147048402,2148266578,2147195840,3060,4,13,19760
1382756385,5810,1013.5200195312500000,58.8697586059570300,675.8306274414062000,4.1053981781005860,52.5661087036132800,52,99,86,83,78,14910,2147753874,2147426624,2148011072,2147873499,2147644050,2147053156,2148269440,2147196050,3528,4,13,47257
1382759985,5809,1025.8599853515625000,58.1571617126464840,673.9265747070312000,4.1683998107910160,52.6333503723144500,52,95,83,79,78,14915,2147754157,2147423908,2148012909,2147872201,2147640603,2147053732,2148268050,2147195309,3256,4,13,5652
1382763585,5808,1020.7000122070312000,56.9039611816406250,672.7194824218750000,4.2083191871643070,52.7811508178710940,53,97,81,78,78,14914,2147756141,2147425243,2148012589,2147874249,2147640182,2147053138,2148262390,2147197129,3535,4,13,18302
1382767185,5808,1017.1099853515625000,57.0009918212890600,673.7977294921875000,4.1726632118225100,52.7810707092285160,52,96,86,79,78,14913,2147755995,2147426541,2148016064,2147872320,2147640585,2147057728,2148260754,2147192905,34,4,13,8026
1382770785,5811,1013.0399780273438000,57.5849609375000000,675.1201171875000000,4.1289119720458980,52.7251701354980500,51,99,84,79,78,14911,2147757284,2147422144,2148013723,2147871469,2147644608,2147049956,2148268690,2147197988,859,4,13,6220
1382774385,5809,1011.4199829101562000,57.9323806762695300,675.2807006835938000,4.1235980987548830,52.6824493408203100,52,99,84,78,78,14911,2147755254,2147422692,2148013357,2147873737,2147638866,2147058093,2148266843,2147196050,1499,3,13,20662
1382777985,5809,1012.2899780273438000,58.7538604736328100,676.2576293945312000,4.0912628173828125,52.5903511047363300,52,96,82,78,78,14911,2147756242,2147424548,2148012233,2147874651,2147640182,2147050203,2148269723,2147199369,4,4,13,14213
1382781585,5808,1016.7999877929688000,58.2889900207519500,675.2426757812500000,4.1248531341552730,52.6311912536621100,51,97,80,77,78,14904,2147752484,2147424640,2148015734,2147875702,2147640621,2147050806,2148266587,2147197366,3249,4,13,46796
1382785185,5812,1010.6400146484375000,58.2447090148925800,675.9652709960938000,4.1009368896484375,52.6512107849121100,52,97,84,79,79,14905,2147753718,2147421677,2148014198,2147873728,2147640978,2147056557,2148268388,2147198171,403,4,13,55215
1382788785,5806,1011.3800048828125000,58.1749687194824200,675.8820190429688000,4.1036949157714840,52.6546516418457000,52,97,85,77,79,14908,2147752274,2147423734,2148013065,2147873920,2147636809,2147048685,2148265965,2147197092,778,4,13,27217
1382792385,5811,1009.8800048828125000,58.5716400146484400,676.4846191406250000,4.0837497711181640,52.6140098571777340,53,97,85,77,78,14907,2147758793,2147425280,2148013421,2147873636,2147638729,2147050029,2148271149,2147199981,363,4,13,12491
1382795985,5810,1014.1799926757812000,58.0255012512207000,676.8560180664062000,4.0714488029479980,52.6893997192382800,52,95,85,78,78,14903,2147755702,2147423844,2148013750,2147874029,2147639396,2147053430,2148264758,2147203200,112,4,13,54519
1382799585,5808,1016.8499755859375000,58.9774398803710940,676.3883056640625000,4.0869350433349610,52.5592117309570300,51,96,86,79,78,14909,2147755940,2147423433,2148012891,2147876726,2147642212,2147051136,2148268306,2147200539,3326,4,13,17087
1382803185,5806,1024.5000000000000000,58.9042091369628900,675.8980712890625000,4.1031627655029300,52.5647506713867200,52,96,82,77,79,14910,2147757165,2147423643,2148012918,2147874121,2147640045,2147050843,2148265298,2147199122,3479,4,13,46382
1382806785,5807,1023.6699829101562000,58.2481384277343750,674.6760864257812000,4.1436018943786620,52.6312789916992200,52,96,82,78,78,14905,2147755355,2147423424,2148012553,2147873115,2147639497,2147053129,2148271277,2147195849,77,4,13,21958
1382810385,5809,1019.1099853515625000,57.3130493164062500,675.2017211914062000,4.1262130737304690,52.7603111267089840,52,99,85,78,77,14886,2147755620,2147423853,2148017042,2147879552,2147641435,2147049536,2148268781,2147196470,3572,4,13,29829
1382813985,5807,1022.4199829101562000,58.3206596374511700,675.3568115234375000,4.1210780143737790,52.6292495727539060,51,102,83,77,78,14892,2147754898,2147426459,2148013558,2147874386,2147637933,2147051547,2148271222,2147197586,3158,4,13,37445
1382817355,5804,1019.3499755859375000,58.2910499572753900,674.8328247070312000,4.1384181976318360,52.6276893615722660,51,98,84,77,79,15251,2147753691,2147424841,2148012882,2147876233,2147639908,2147048749,2148273051,2147199954,186,4,13,27901
